EHI
0 0 0 0 0 0 0 0 0 0 0 0 0 0 0 0 0 0 0 0 0 0 0 0 0 0 0 0 0 0 0 0 0 0 0 0 0 0 0 0 0 0 0 0 0 0 0 0 0
0 0 0 0 0 0 0 0 0 0 0 0 0 0 0 0 0 0 0 0 0 0 0 0 0 0 0 0 0 0 0 0 0 0 0 0 0 0 0 0 0 0 0 0 0 0 0 0 0
0 0 0 0 0 0 0 0 0 0 0 0 0 0 0 0 0 0 0 0 0 0 0 0 0 0 0 0 0 0 0 0 0 0 0 0 0 0 0 0 0 0 0 0 0 0 0 0 0
0 0 0 0 0 0 0 0 0 0 0 0 0 0 0 0 0 0 0 0 0 0 0 0 0 0 0 0 0 0 0 0 0 0 0 0 0 0 0 0 0 0 0 0 0 0 0 0 0
0 0 0 0 0 0 0 0 0 0 0 0 0 0 0 0 0 0 0 0 0 0 0 0 0 0 0 0 0 0 0 0 0 0 0 0 0 0 0 0 0 0 0 0 0 0 0 0 0
0 0 0 0 0 0 0 0 0 0 0 0 0 0 0 0 0 0 0 0 0 0 0 0 0 0 0 0 0 0 0 0 0 0 0 0 0 0 0 0 0 0 0 0 0 0 0 0 0
0 0 0 0 0 0 0 0 0 0 0 0 0 0 0 0 0 0 0 0 0 0 0 0 0 0 0 0 0 0 0 0 0 0 0 0 0 0 0 0 0 0 0 0 0 0 0 0 0
0 0 0 0 0 0 0 0 0 0 0 0 0 0 0 0 0 0 0 0 0 0 0 0 0 0 0 0 0 0 0 0 0 0 0 0 0 0 0 0 0 0 0 0 0 0 0 0 0
0 0 0 0 0 0 0 0 0 0 0 0 0 0 0 0 0 0 0 0 0 0 0 0 0 0 0 0 0 0 0 0 0 0 0 0 0 0 0 0 0 0 0 0 0 0 0 0 0
0 0 0 0 0 0 0 0 0 0 0 0 0 0 0 0 0 0 0 0 0 0 0 0 0 0 0 0 0 0 0 0 0 0 0 0 0 0 0 0 0 0 0 0 0 0 0 0 0
0 0 0 0 0 0 0 0 0 0 0 0 0 0 0 0 0 0 0 0 0 0 0 0 0 0 0 0 0 0 0 0 0 0 0 0 0 0 0 0 0 0 0 0 0 0 0 0 0
0 0 0 0 0 0 0 0 0 0 0 0 0 0 0 0 0 0 0 0 0 0 0 0 0 0 0 0 0 0 0 0 0 0 0 0 0 0 0 0 0 0 0 0 0 0 0 0 0
0 0 0 0 0 0 0 0 0 0 0 0 0 0 0 0 0 0 0 0 0 0 0 0 0 0 0 0 0 0 0 0 0 0 0 0 0 0 0 0 0 0 0 0 0 0 0 0 0
0 0 0 0 0 0 0 0 0 0 0 0 0 0 0 0 0 0 0 0 0 0 0 0 0 0 0 0 0 0 0 0 0 0 0 0 0 0 0 0 0 0 0 0 0 0 0 0 0
0 0 0 0 0 0 0 0 0 0 0 0 0 0 0 0 0 0 0 0 0 0 0 0 0 0 0 0 0 0 0 0 0 0 0 0 0 0 0 0 0 0 0 0 0 0 0 0 0
0 0 0 0 0 0 0 0 0 0 0 0 0 0 0 0 0 0 0 0 0 0 0 0 0 0 0 0 0 0 0 0 0 0 0 0 0 0 0 0 0 0 0 0 0 0 0 0 0
0 0 0 0 0 0 0 0 0 0 0 0 0 0 0 0 0 0 0 0 0 0 0 0 0 0 0 0 0 0 0 0 0 0 0 0 0 0 0 0 0 0 0 0 0 0 0 0 0
0 0 0 0 0 0 0 0 0 0 0 0 0 0 0 0 0 0 0 0 0 0 0 0 0 0 0 0 0 0 0 0 0 0 0 0 0 0 0 0 0 0 0 0 0 0 0 0 0
0 0 0 0 0 0 0 0 0 0 0 0 0 0 0 0 0 0 0 0 0 0 0 0 0 0 0 0 0 0 0 0 0 0 0 0 0 0 0 0 0 0 0 0 0 0 0 0 0
0 0 0 0 0 0 0 0 0 0 0 0 0 0 0 0 0 0 0 0 0 0 0 0 0 0 0 0 0 0 0 0 0 0 0 0 0 0 0 0 0 0 0 0 0 0 0 0 0
0 0 0 0 0 0 0 0 0 0 0 0 0 0 0 0 0 0 0 0 0 0 0 0 0 0 0 0 0 0 0 0 0 0 0 0 0 0 0 0 0 0 0 0 0 0 0 0 0
0 0 0 0 0 0 0 0 0 0 0 0 0 0 0 0 0 0 0 0 0 0 0 0 0 0 0 0 0 0 0 0 0 0 0 0 0 0 0 0 0 0 0 0 0 0 0 0 0
0 0 0 0 0 0 0 0 0 0 0 0 0 0 0 0 0 0 0 0 0 0 0 0 0 0 0 0 0 0 0 0 0 0 0 0 0 0 0 0 0 0 0 0 0 0 0 0 0
0 0 0 0 0 0 0 0 0 0 0 0 0 0 0 0 0 0 0 0 0 0 0 0 0 0 0 0 0 0 0 0 0 0 0 0 0 0 0 0 0 0 0 0 0 0 0 0 0
0 0 0 0 0 0 0 0 0 0 0 0 0 0 0 0 0 0 0 0 0 0 0 0 0 0 0 0 0 0 0 0 0 0 0 0 0 0 0 0 0 0 0 0 0 0 0 0 0
0 0 0 0 0 0 0 0 0 0 0 0 0 0 0 0 0 0 0 0 0 0 0 0 0 0 0 0 0 0 0 0 0 0 0 0 0 0 0 0 0 0 0 0 0 0 0 0 0
0 0 0 0 0 0 0 0 0 0 0 0 0 0 0 0 0 0 0 0 0 0 0 0 0 0 0 0 0 0 0 0 0 0 0 0 0 0 0 0 0 0 0 0 0 0 0 0 0
0 0 0 0 0 0 0 0 0 0 0 0 0 0 0 0 0 0 0 0 0 0 0 0 0 0 0 0 0 0 0 0 0 0 0 0 0 0 0 0 0 0 0 0 0 0 0 0 0
0 0 0 0 0 0 0 0 0 0 0 0 0 0 0 0 0 0 0 0 0 0 0 0 0 0 0 0 0 0 0 0 0 0 0 0 0 0 0 0 0 0 0 0 0 0 0 0 0
0 0 0 0 0 0 0 0 0 0 0 0 0 0 0 0 0 0 0 0 0 0 0 0 0 0 0 0 0 0 0 0 0 0 0 0 0 0 0 0 0 0 0 0 0 0 0 0 0
Wind_Speed
3 3 3 5 7 6 1 2 4 4 3 1 2 3 6 7 6 4 1 5 6 5 3 4 9 9 8 8 8 9 9 10 12 13 14 14 15 16 17 18 18 19 20 21 22 23 23 24 24
1 2 5 6 6 2 3 3 5 5 5 5 3 3 3 3 1 3 4 5 6 5 4 2 10 9 8 7 7 8 9 10 11 12 13 13 14 15 16 17 17 18 19 19 20 21 22 23 24
2 5 6 6 4 4 3 3 5 3 5 4 3 0 3 4 4 6 5 8 6 5 4 3 11 9 8 7 7 7 8 9 10 11 12 13 13 14 15 15 16 17 17 18 19 20 22 22 23
3 5 6 5 2 2 2 2 5 7 3 2 4 2 3 2 5 6 6 7 7 5 3 3 12 10 8 7 7 7 7 8 9 10 11 12 12 13 13 14 15 16 17 18 19 20 21 22 23
5 5 5 3 2 2 2 3 8 7 6 4 5 4 3 2 3 7 9 7 8 6 2 2 11 10 8 7 6 6 7 8 9 10 10 11 11 12 12 13 14 15 16 17 18 20 21 22 22
5 5 4 2 4 2 2 4 7 5 4 4 6 4 4 3 6 8 9 7 7 6 3 1 10 11 9 7 6 6 6 7 8 9 10 10 10 11 12 12 13 14 15 17 18 19 20 21 21
5 4 3 3 2 3 4 6 5 6 5 7 8 5 3 4 6 8 8 7 6 6 4 2 3 4 7 6 7 7 7 7 7 8 9 9 10 11 11 12 13 14 15 16 17 18 19 20 20
5 6 3 2 4 6 5 7 4 8 6 3 8 7 5 7 8 7 6 5 5 5 4 4 3 4 4 2 6 7 7 7 7 8 9 9 10 10 11 11 12 13 14 15 16 17 18 18 19
3 5 3 6 8 6 5 6 3 3 4 3 4 3 0 11 12 9 5 4 5 6 5 5 5 4 4 3 4 5 6 7 7 5 8 8 4 3 5 8 12 13 14 15 16 16 17 16 16
4 3 7 5 6 4 7 7 7 4 3 5 4 2 5 12 14 14 12 12 11 10 7 6 6 6 5 4 4 3 3 4 5 4 5 3 2 2 5 9 12 12 13 14 15 16 14 11 6
2 4 2 1 2 3 6 5 6 7 10 12 11 9 10 12 15 16 15 13 12 9 8 8 7 7 6 4 4 3 2 3 4 5 5 4 3 2 3 2 4 5 8 6 8 8 5 5 5
2 1 1 2 1 4 6 6 5 10 12 7 9 10 12 18 20 20 19 13 10 9 10 9 8 7 7 5 4 4 3 3 3 5 6 4 3 2 2 1 2 2 2 3 3 3 4 5 5
1 1 1 1 1 2 3 4 5 10 10 4 6 11 15 19 19 18 14 11 11 13 13 11 10 9 7 6 5 5 5 5 5 4 5 5 4 3 2 1 1 2 2 2 2 3 4 4 5
1 0 1 1 1 1 2 3 4 13 6 7 9 12 15 18 20 15 13 14 16 17 15 12 12 11 9 7 6 5 5 5 5 5 6 6 4 4 3 2 1 0 1 1 2 3 3 4 4
1 1 3 2 1 0 1 8 12 10 5 7 10 10 13 15 15 19 19 19 19 16 15 14 13 11 10 9 8 6 5 5 5 5 6 6 6 5 4 3 2 2 2 3 2 4 3 4 5
1 3 4 4 4 1 2 12 12 4 8 11 10 10 11 14 15 17 16 15 14 13 14 15 14 13 12 10 8 6 5 6 5 5 5 7 7 6 5 4 4 3 3 3 3 3 3 4 4
3 2 4 6 4 3 5 13 10 2 7 11 10 11 12 13 14 15 15 15 14 15 15 16 15 14 14 11 8 6 6 6 5 5 5 6 7 7 5 5 4 4 3 3 4 3 3 4 5
4 4 5 7 4 5 7 16 18 7 8 12 11 11 11 15 19 16 16 15 13 14 14 15 15 13 11 8 5 4 5 5 5 5 6 8 7 7 6 5 5 4 3 4 4 4 4 4 5
2 4 7 8 4 6 11 18 23 15 10 14 15 13 15 18 14 10 13 13 12 13 15 16 17 14 11 7 7 6 6 5 5 6 8 8 8 8 7 5 5 5 5 5 5 3 4 4 3
3 4 7 7 3 5 8 16 19 14 12 16 16 16 16 14 9 10 12 14 17 17 17 17 18 17 15 12 8 5 4 4 5 5 7 9 9 9 8 7 6 6 5 5 5 5 3 3 2
4 6 6 6 4 3 7 13 10 8 5 7 10 11 10 14 15 11 12 15 16 18 21 19 20 19 17 13 7 4 3 2 4 6 7 9 10 9 8 8 7 6 6 6 6 6 5 4 3
7 6 5 3 3 6 3 10 12 8 9 8 10 10 13 13 13 11 12 13 18 21 17 17 18 18 16 16 14 13 12 11 11 7 7 8 9 9 9 8 8 7 6 6 7 6 5 5 4
7 0 0 1 2 5 3 5 14 7 9 11 10 11 13 12 13 13 14 16 17 15 14 16 15 17 17 18 19 18 14 9 5 5 8 8 8 9 9 9 8 7 7 7 7 6 6 5 5
2 4 4 4 3 5 5 5 12 8 9 9 8 8 9 10 10 12 11 9 10 10 12 14 16 18 18 19 19 20 18 12 9 9 9 8 6 7 9 9 8 8 7 8 8 7 7 7 7
2 3 5 6 3 7 2 4 14 16 9 9 12 12 9 7 8 9 10 11 12 13 15 15 17 19 18 19 20 20 19 16 16 14 13 10 8 8 10 10 8 8 8 8 7 7 8 8 8
3 5 5 4 5 7 3 9 14 14 9 8 10 10 11 10 8 9 10 10 11 12 13 15 18 19 18 20 20 18 16 13 12 13 11 12 10 10 9 11 9 9 9 8 7 7 8 7 8
4 4 3 3 3 5 8 10 15 11 8 6 7 8 10 10 9 9 8 8 9 10 13 16 17 17 17 19 17 16 16 15 14 12 12 9 9 8 10 10 10 9 9 9 8 7 8 7 8
2 5 4 2 3 7 8 7 8 10 11 10 9 10 10 9 9 9 8 8 8 9 9 10 14 16 15 15 16 15 16 16 14 12 13 12 11 10 10 11 10 10 9 9 8 8 8 9 9
4 3 4 3 3 4 7 10 9 10 11 10 12 11 10 11 11 11 9 7 7 8 9 11 12 13 13 15 15 15 15 15 14 14 15 13 12 12 12 11 11 10 10 9 9 9 8 10 10
6 6 8 4 6 5 5 14 11 10 10 9 12 12 11 11 12 11 10 8 6 7 7 9 11 13 14 12 13 15 13 13 15 16 15 13 13 13 13 11 11 11 10 9 10 10 10 10 11
Wind_Direction
55 55 63 55 55 52 118 198 164 156 171 124 109 139 163 172 173 199 127 168 141 139 118 124 132 120 107 92 78 67 60 54 48 44 42 39 38 37 33 32 30 29 28 26 26 25 25 25 23
58 50 54 58 82 52 269 198 184 192 158 134 108 112 135 192 189 138 163 187 155 139 118 126 139 128 116 102 86 73 65 59 52 48 44 40 39 38 33 32 30 29 28 26 26 25 25 23 22
77 51 76 73 104 182 234 192 182 122 142 143 126 125 199 205 191 187 196 166 148 139 130 187 141 134 123 111 96 81 71 64 57 52 46 41 40 39 33 32 30 28 27 26 26 25 24 23 20
77 47 53 74 157 203 243 198 153 132 163 159 150 190 248 226 185 185 155 152 143 149 144 205 147 142 133 123 109 91 78 70 63 58 50 43 41 41 33 32 31 28 27 26 26 25 24 22 19
59 74 61 47 249 254 243 193 157 162 184 180 172 193 240 193 141 140 146 154 152 159 160 230 158 152 144 134 120 104 89 78 69 64 56 45 42 42 34 31 31 28 28 26 25 24 23 22 18
59 69 89 254 260 270 231 170 157 174 174 174 180 194 232 153 147 158 157 163 161 158 151 322 174 160 156 147 137 121 104 91 80 74 64 51 44 41 35 30 32 30 29 27 26 24 22 21 17
109 112 175 216 241 265 211 168 178 175 189 204 184 189 229 193 188 160 158 158 163 156 143 104 64 126 153 152 150 136 119 106 93 85 75 59 48 41 37 29 32 32 31 28 26 24 22 20 15
118 105 118 197 218 249 192 172 196 172 204 178 165 186 231 199 158 141 144 157 169 167 161 152 125 109 96 91 157 145 134 121 107 98 89 73 58 44 35 27 30 32 32 28 26 23 20 19 12
91 89 213 216 204 234 170 177 190 166 142 185 214 215 131 135 134 137 149 177 191 189 187 172 164 156 151 156 155 132 133 128 108 94 100 92 78 59 25 22 32 32 32 27 25 22 19 19 10
86 167 229 208 193 200 178 187 180 158 191 226 237 196 117 140 158 172 182 189 193 195 195 190 181 175 171 162 121 119 111 113 120 116 112 114 104 78 60 32 35 32 33 26 23 20 19 16 4
70 200 225 154 215 173 169 193 182 175 223 215 207 186 154 164 178 190 196 194 196 192 193 190 188 181 173 160 154 152 143 141 147 150 146 135 114 82 71 51 34 28 34 31 20 16 11 1 351
90 21 350 318 206 166 179 180 197 212 225 210 197 162 167 178 190 198 201 197 187 188 198 191 187 183 182 172 168 168 167 166 169 170 160 150 143 135 117 83 49 39 30 20 14 3 350 341 330
97 336 6 0 111 175 166 200 231 244 236 209 155 159 180 190 199 205 204 193 188 197 200 195 188 188 182 177 182 177 181 180 177 173 173 166 158 155 144 114 65 34 21 8 344 333 323 314 305
137 31 320 351 71 131 209 257 247 257 227 195 181 189 195 199 203 200 200 198 198 202 202 195 193 192 184 184 188 184 185 182 177 179 182 176 166 162 158 153 149 247 267 266 274 279 283 280 280
135 357 306 235 192 223 332 285 236 241 163 205 212 210 208 212 207 206 205 204 202 202 199 196 196 192 190 192 193 188 187 181 183 186 185 180 174 169 166 171 195 221 231 246 258 270 263 262 267
44 12 309 267 187 153 169 269 265 231 194 227 226 221 221 221 217 216 211 209 203 197 196 198 198 193 196 195 192 187 186 186 190 185 183 186 182 175 170 181 205 212 213 228 245 252 256 260 266
20 315 280 292 192 164 203 255 272 158 200 240 240 227 225 229 229 222 214 209 202 199 196 197 199 193 196 195 190 187 184 193 192 185 186 190 187 181 176 190 206 204 208 223 246 245 232 256 267
266 261 268 268 221 181 228 256 268 234 216 242 248 240 230 232 233 220 213 209 203 199 199 200 201 197 189 183 177 182 195 203 195 193 193 190 190 186 182 193 206 201 206 223 230 247 246 242 258
223 236 262 263 215 195 241 259 269 266 230 243 245 240 238 240 238 209 205 202 198 198 200 201 200 196 182 176 181 184 202 200 200 202 198 193 192 189 186 195 199 199 207 219 221 232 258 259 248
225 261 270 281 210 211 273 273 269 262 238 234 238 236 235 239 236 211 200 198 201 203 203 203 203 198 194 195 180 172 171 188 198 197 199 197 194 192 194 194 199 201 208 219 222 213 234 256 255
238 225 247 268 315 264 305 294 284 286 249 251 239 236 233 230 235 220 203 204 204 207 206 205 204 201 198 188 164 143 131 144 177 197 202 200 195 193 194 193 196 201 202 215 219 210 215 242 250
261 242 230 274 320 299 347 300 291 286 296 266 247 234 235 233 232 225 207 206 209 213 207 205 202 201 196 186 187 186 193 199 198 190 191 190 193 193 195 196 197 202 205 214 222 217 210 219 247
228 360 120 305 247 300 265 246 284 311 286 272 255 238 234 230 224 225 217 214 214 210 202 202 200 201 196 194 198 200 207 204 173 173 182 190 194 197 197 198 198 204 209 214 219 222 218 216 231
139 62 52 53 70 287 240 196 281 266 247 277 287 268 251 242 230 231 227 215 213 200 197 196 199 204 199 198 202 205 207 192 177 185 189 194 195 200 202 202 202 206 210 216 220 222 224 227 232
97 72 349 336 340 260 199 213 255 259 251 252 275 288 290 274 249 240 229 217 214 202 200 197 200 206 201 200 205 209 209 199 198 193 195 192 194 202 206 203 203 207 213 218 219 221 228 228 232
179 155 179 254 264 287 274 239 257 269 280 267 269 281 291 283 265 251 239 225 219 209 201 198 203 207 201 203 208 209 206 203 205 200 194 196 200 202 194 199 204 208 211 220 218 224 230 230 234
161 206 180 168 279 280 275 288 297 292 314 315 300 296 291 290 286 271 263 243 227 213 206 204 205 207 204 205 206 207 206 206 205 199 197 197 197 194 194 196 202 209 214 218 219 230 233 234 239
173 160 111 150 274 283 288 277 260 293 303 314 318 313 305 304 296 284 269 251 234 221 211 203 207 211 208 204 205 207 207 208 204 196 199 199 197 193 189 196 203 209 214 218 222 232 235 238 245
151 164 164 171 199 224 278 269 238 248 270 288 297 298 295 295 291 284 275 259 236 217 203 203 207 209 208 207 206 209 206 205 203 204 204 200 196 194 198 199 203 210 215 218 223 233 235 241 251
179 191 161 186 244 208 245 269 257 257 273 279 284 291 292 286 284 283 282 276 253 231 214 210 209 212 213 206 205 211 208 202 205 209 206 199 197 197 199 199 204 211 216 218 223 236 242 242 251